FENGYUN 1C DEB, 31371

Orbit data source: Space-Track

FENGYUN 1C DEB, 31371 is space debris in SSO originally from a launch on Mon, 10 May 1999 UTC launched from the Taiyaun Space Center, China (TSC). Fengyun 1C debris stems from the Chinese weather satellite Fengyun-1C, which was intentionally destroyed by a Chinese anti-satellite missile in 2007. This event dramatically increased the amount of space debris, with thousands of trackable fragments posing hazards to satellites and human spaceflight. The Fengyun 1C debris cloud has become a focal point in discussions about space sustainability and the need for international regulations to prevent the creation of new debris.

Loading next visibility...
Identifier
31371, 1999-025BSB
Orbit
SSO
Country
Flag of CNCN / PRC
Related business
Manufacturer
Unknown
Mission
Spacecraft
Bus & Motor
Unknown
Mass
Unknown
Launch date (UTC)
1999-05-10 (27 years ago)
Launch vehicle
Unknown
Launch site
Taiyaun Space Center, China (TSC)
Object type
Payload
Rocket body
Debris
Shape & HBR
Unknown shape, 0.1 m
Radar Cross Section
Small (<0.1 m²)

Expand to show TLE details & history
Last TLE update: 13 hours ago

TLE from 13 hours ago
0 FENGYUN 1C DEB
1 31371U 99025BSB 26145.53551468  .00000822  00000-0  52269-3 0  9994
2 31371  98.7451 177.7910 0079311 146.7301 213.8889 14.04904381980466
Epoch: 2026-05-25T12:51Z
TLE epoch observation values (Epoch: 2026-05-25T12:51:08.468Z)
Latitude
0.00002°
Longitude
101.8838°
Altitude
927.67 km
Speed
7.364 km/s
True Right ascension
11h 51m 09s
True Declination
0° 00' 00"
Sunlit
Object was in daylight at epoch
Visualization orbit readout
Latitude
Unknown
Longitude
Unknown
Altitude
Unknown
Speed
Unknown
Apparent Right ascension
Unknown
Apparent Declination
Unknown
Sunlit
N/A
Visualization observer readout
Local Sidereal Time
11:16:29
Azimuth
Unknown
Elevation
Unknown
Doppler factor
Unknown
Orbital elements
Apogee altitude
931.56 km
Perigee altitude
816.524 km
Semi-major axis
7,252.179 km
Eccentricity
0.00793
Inclination
98.7451°
RAAN
177.791°
Arg. of periapsis
146.7301°
True anomaly
213.38629°
Mean anomaly
213.8889°
Eccentric anomaly
213.63718°
Mean motion
3.51431 °/min
Orbital period
102.44 mins
BSTAR
0.00052269
Loading maneuver chart data...
Computing Atmospheric mass density...

Documentation

Showing up to 5 results
|